Overview Statistics Trail Chart Weather Telemetry Raw packets
 

This is the latest recevied weather packets stored in our database for station/object W9GWP. If no packets are shown the sender has not sent any weather packets the latest 10 day(s).

<< 1 2 3 4 5 6 >>
Time Temp. Humidity Pressure Rain* Wind** Luminosity Snow
1788527210 22.78° C 91% 1042 hPa 0 mm - 79 W/m² -
1788526308 22.22° C 92% 1042.3 hPa 0 mm - 49 W/m² -
1788525404 22.22° C 94% 1041.6 hPa 0 mm - 35 W/m² -
1788524501 21.67° C 96% 1041.4 hPa 0 mm - 24 W/m² -
1788523607 21.67° C 97% 1041.1 hPa 0 mm - 13 W/m² -
1788522697 21.67° C 97% 1041 hPa 0 mm - 5 W/m² -
1788521798 22.22° C 98% 1040.5 hPa 0 mm - 2 W/m² -
1788520894 22.22° C 98% 1040.1 hPa 0 mm - 0 W/m² -
1788519992 22.78° C 98% 1040.3 hPa 0 mm - 0 W/m² -
1788519093 22.78° C 98% 1039.9 hPa 0 mm - 0 W/m² -
1788518191 22.78° C 98% 1039.5 hPa 0 mm - 0 W/m² -
1788517289 22.78° C 98% 1039.6 hPa 0 mm - 0 W/m² -
1788516389 22.78° C 98% 1039.6 hPa 0 mm - 0 W/m² -
1788515485 22.78° C 97% 1040 hPa 0 mm - 0 W/m² -
1788514584 22.78° C 97% 1039.4 hPa 0 mm - 0 W/m² -
1788513681 22.78° C 97% 1039.2 hPa 0 mm - 0 W/m² -
1788512778 22.78° C 97% 1039.1 hPa 0 mm - 0 W/m² -
1788511874 22.78° C 97% 1039.1 hPa 0 mm - 0 W/m² -
1788510973 22.78° C 97% 1039.2 hPa 0 mm - 0 W/m² -
1788510076 22.78° C 97% 1039.2 hPa 0 mm - 0 W/m² -
1788509169 22.78° C 97% 1040.2 hPa 0 mm - 0 W/m² -
1788508266 22.78° C 97% 1040.1 hPa 0 mm - 0 W/m² -
1788507362 22.78° C 97% 1039.7 hPa 0 mm - 0 W/m² -
1788506461 22.78° C 97% 1039.7 hPa 0 mm - 0 W/m² -
1788505556 22.78° C 96% 1040 hPa 0 mm - 0 W/m² -

* Rain latest hour (hover to see other rain measurements)
** Current wind speed in m/s (hover to see current wind gust speed)